OneWeb SL0287

operational
NORAD ID: 49077 Int'l Des: 2021-075 Owner: ONEWEBN Country: UK Constellation: oneweb
LEOCIRCULARPOLARONEWEB_TYPE

关于 OneWeb SL0287

正在加载描述...

实时位置

正在加载3D地球...

即将过境

高度历史

Altitude vs Time

uPlot chart will show altitude changes over time

两行轨道根数

1 49077U 21075C 25351.67921591 .00000034 00000-0 54242-4 0 9996
2 49077 87.9115 41.9564 0001752 115.8621 244.2692 13.17652335209723
Epoch: Dec 17, 2025 • Age: 15 hours

当前状态

高度 1199.8 km
速度 7.25 km/s
星下点 -12.37°S, 148.04°W
发射日期 Aug 21, 2021
运行时间 4.3 years
类型 internet

技术详情

分类 Payload
质量 148.00 kg
干质量 140.00 kg
总质量 148.00 kg
长度 1.30 m
直径 1.00 m
跨度 5.00 m
形状 Trapezoid+2 pan
制造商 ONEWUS
平台类型 ARROW
阶段状态 In Orbit
所有者/国家 ONEWEBN/UK

大型星座

Loading constellations...